Showing default

KINEIS-1D, 60082

Orbit data source: Space-Track

KINEIS-1D, 60082 is a French payload satellite in SSO that was launched on Thu, 20 Jun 2024 UTC via an ELECTRON launch vehicle from the Rocket Lab Launch Complex (RLLC). Payload-class satellites include a variety of spacecraft equipped with specific instruments for various scientific and technological missions. These include communications satellites like Starlink; space stations such as the ISS; scientific satellites like the Hubble; Earth observation satellites from companies like Planet Labs, Umbra, and HawkEye 360; GPS; miniature CubeSats for education and research; and military/defense satellites.

Loading next visibility...
Identifier
60082, 2024-114D
Orbit
SSO
Last TLE update
8 hours ago
Origin
Manufacturer
KINEIS
Mission
Operational Commercial Communications
Bus & Motor
CUBESAT 16U, Unknown motor
Mass
28 kg wet, 28 kg dry
Launch date (UTC)
2024-06-20 (1 year ago)
Launch vehicle
ELECTRON
Launch site
Rocket Lab Launch Complex (RLLC)
Object type
Payload
Rocket body
Debris
Shape & HBR
Box + 2 Pan + 1 Ant, 1.6 m
Radar Cross Section
0.229 m², Medium (>0.1 m² and < 1m²)

Expand to show TLE details & history

TLE from 8 hours ago
0 KINEIS-1D
1 60082U 24114D   25183.83649708  .00000546  00000-0  87457-4 0  9992
2 60082  98.0095 202.4832 0000900 158.3844 201.7403 14.75606742 55595
Epoch: 2025-07-02T20:04Z
TLE epoch observation values (Epoch: 2025-07-02T20:04:33.347Z)
Latitude
-0.00007°
Longitude
-19.76762°
Altitude
646.825 km
Speed
7.534 km/s
True Right ascension
13h 29m 55s
True Declination
0° 00' 00"
Sunlit
Object was in daylight at epoch
Visualization orbit readout
Latitude
-72.44055°
Longitude
134.29973°
Altitude
670.025 km
Speed
7.521 km/s
Apparent Right ascension
02h 24m 46s
Apparent Declination
-59° 28' 51"
Sunlit
Object is in full shadow
Visualization observer readout
Local Sidereal Time
15:29:16
Azimuth
157.921° S
Elevation
-67.963°
Doppler factor
1
Orbital elements
Apogee altitude
640.909 km
Perigee altitude
639.646 km
Semi-major axis
7,018.415 km
Eccentricity
0.00009
Inclination
98.0095°
RAAN
202.4832°
Arg. of periapsis
158.3844°
True anomaly
Unknown
Mean anomaly
201.7403°
Eccentric anomaly
Unknown
Mean motion
3.69135 °/min
Orbital period
97.53 mins
BSTAR
0.000087457
Loading maneuver chart data...
Loading SW <> Apogee altitude chart data...
Loading historical data...
Loading historical data...
Loading historical data...
Loading historical data...
Loading historical data...
Loading historical data...
Loading historical data...

KINEIS-1D Visibility forecast

Observer location: undefined°, undefined°

Span
Click to sort rows by Start time (UTC) header in descending order
Start Az.
Max El. time (UTC)
Max El. Az.
Max El.
End time (UTC)
End Az.
4 mins2025-07-03 12:57:02.734Z59.713° ENE2025-07-03 12:59:02.734Z86.982° E13.746°2025-07-03 13:01:02.734Z116.225° SE
7 mins2025-07-03 14:33:02.734Z356.421° N2025-07-03 14:36:02.734Z293.631° NW37.146°2025-07-03 14:40:02.734Z214.071° SW
7 mins2025-07-04 01:30:02.734Z181.979° SSW2025-07-04 01:33:02.734Z266.286° W41.664°2025-07-04 01:37:02.734Z339.935° N
|